Starlink 31291

operational
NORAD ID: 59096 Int'l Des: 2024-041 Owner: SPXS Country: US Constellation: starlink
LEOCIRCULAR

关于 Starlink 31291

正在加载描述...

实时位置

正在加载3D地球...

即将过境

高度历史

Altitude vs Time

uPlot chart will show altitude changes over time

两行轨道根数

1 59096U 24041Y 25257.28644036 .00000468 00000-0 26525-4 0 9996
2 59096 42.9996 226.8649 0000822 266.5069 93.5688 15.27575605 87291
Epoch: Sep 14, 2025 • Age: 29 hours

当前状态

高度 482.3 km
速度 7.63 km/s
星下点 8.98°N, 142.08°W
发射日期 Feb 29, 2024
运行时间 1.5 years
类型 internet

技术详情

分类 Payload
质量 730.00 kg
干质量 700.00 kg
总质量 730.00 kg
长度 0.30 m
直径 4.10 m
跨度 29.00 m
形状 Box + pan
制造商 SPXS
平台类型 Starlink V2M
阶段状态 In Orbit
所有者/国家 SPXS/US

大型星座

Loading constellations...